| time (UTC) | temp F | wind direction | speed MPH | gust MPH | rain 1hr in | rain 24hr in | rain mn in | humidity % | barometer mb |
| 20260506061557 | 50 | 180 | 0.0 | 4.0 | 0.00 | 0.00 | 0.00 | 87 | 1008.2 |
| 20260506044540 | 52 | 179 | 1.0 | 6.0 | 0.00 | 0.00 | 0.00 | 83 | 1008.5 |
| 20260506043039 | 52 | 360 | 0.0 | 3.0 | 0.00 | 0.00 | 0.00 | 83 | 1008.4 |
| 20260506041535 | 53 | 360 | 0.0 | 3.0 | 0.00 | 0.00 | 0.00 | 82 | 1008.5 |
| 20260506040036 | 54 | 360 | 0.0 | 4.0 | 0.00 | 0.00 | 0.00 | 81 | 1008.4 |
| 20260506034545 | 53 | 0 | 0.0 | 4.0 | 0.00 | 0.00 | 0.00 | 83 | 1008.2 |
| 20260506033042 | 52 | 0 | 0.0 | 2.0 | 0.00 | 0.00 | 0.00 | 83 | 1008.1 |
| 20260506031542 | 53 | 174 | 0.0 | 4.0 | 0.00 | 0.00 | 0.00 | 82 | 1008.0 |
| 20260506030035 | 54 | 360 | 0.0 | 4.0 | 0.00 | 0.00 | 0.00 | 81 | 1008.0 |
| 20260506024534 | 54 | 360 | 1.0 | 3.0 | 0.00 | 0.00 | 0.00 | 80 | 1008.1 |
| 20260506023052 | 55 | 360 | 0.0 | 1.0 | 0.00 | 0.00 | 0.00 | 80 | 1008.2 |
| 20260506021536 | 55 | 360 | 1.0 | 3.0 | 0.00 | 0.00 | 0.00 | 79 | 1008.1 |
| 20260506020110 | 55 | 360 | 0.0 | 2.0 | 0.00 | 0.00 | 0.00 | 79 | 1008.2 |
| 20260506014544 | 55 | 360 | 0.0 | 2.0 | 0.00 | 0.00 | 0.00 | 77 | 1008.4 |
| 20260506013044 | 56 | 0 | 0.0 | 2.0 | 0.00 | 0.00 | 0.00 | 77 | 1008.3 |
| 20260506011548 | 56 | 0 | 0.0 | 4.0 | 0.00 | 0.00 | 0.00 | 76 | 1008.0 |
| 20260506010035 | 57 | 360 | 1.0 | 2.0 | 0.00 | 0.00 | 0.00 | 75 | 1007.9 |
| 20260506004541 | 58 | 58 | 0.0 | 4.0 | 0.00 | 0.00 | 0.00 | 73 | 1007.8 |
| 20260506003046 | 58 | 182 | 2.0 | 5.0 | 0.00 | 0.00 | 0.00 | 73 | 1007.4 |
| 20260506001547 | 59 | 160 | 2.0 | 6.0 | 0.00 | 0.00 | 0.00 | 70 | 1006.9 |
| 20260506000054 | 61 | 163 | 2.0 | 6.0 | 0.00 | 0.00 | 0.00 | 67 | 1006.7 |
| 20260505234540 | 63 | 180 | 2.0 | 9.0 | 0.00 | 0.00 | 0.00 | 65 | 1006.4 |
| 20260505233049 | 61 | 157 | 2.0 | 11.0 | 0.00 | 0.00 | 0.00 | 69 | 1006.2 |
| 20260505231548 | 55 | 360 | 2.0 | 6.0 | 0.00 | 0.00 | 0.00 | 77 | 1006.7 |
| 20260505230046 | 56 | 0 | 0.0 | 4.0 | 0.00 | 0.00 | 0.00 | 77 | 1005.2 |
| 20260505224544 | 56 | 190 | 1.0 | 4.0 | 0.00 | 0.00 | 0.00 | 76 | 1004.9 |
| 20260505223045 | 57 | 178 | 2.0 | 5.0 | 0.00 | 0.00 | 0.00 | 74 | 1004.8 |
| 20260505221550 | 58 | 148 | 2.0 | 9.0 | 0.00 | 0.00 | 0.00 | 74 | 1004.7 |
| 20260505220044 | 58 | 136 | 1.0 | 8.0 | 0.00 | 0.00 | 0.00 | 73 | 1004.6 |
| 20260505214539 | 59 | 82 | 1.0 | 6.0 | 0.00 | 0.00 | 0.00 | 72 | 1004.5 |
| 20260505213035 | 60 | 250 | 1.0 | 5.0 | 0.00 | 0.00 | 0.00 | 71 | 1004.4 |
| 20260505211608 | 59 | 300 | 2.0 | 8.0 | 0.00 | 0.00 | 0.00 | 73 | 1004.3 |
| 20260505210044 | 58 | 182 | 2.0 | 6.0 | 0.00 | 0.00 | 0.00 | 73 | 1004.3 |
| 20260505204555 | 60 | 141 | 3.0 | 9.0 | 0.00 | 0.00 | 0.00 | 71 | 1004.2 |
| 20260505203039 | 60 | 171 | 3.0 | 10.0 | 0.00 | 0.00 | 0.00 | 70 | 1004.4 |
| 20260505201539 | 60 | 178 | 1.0 | 7.0 | 0.00 | 0.00 | 0.00 | 71 | 1004.4 |
| 20260505200048 | 60 | 258 | 1.0 | 10.0 | 0.00 | 0.00 | 0.00 | 71 | 1004.6 |
| 20260505194546 | 60 | 212 | 1.0 | 6.0 | 0.00 | 0.00 | 0.00 | 72 | 1004.8 |
| 20260505193035 | 59 | 190 | 2.0 | 6.0 | 0.00 | 0.00 | 0.00 | 74 | 1004.9 |
| 20260505191544 | 58 | 270 | 1.0 | 6.0 | 0.00 | 0.00 | 0.00 | 75 | 1005.1 |
| 20260505190041 | 58 | 142 | 2.0 | 7.0 | 0.00 | 0.00 | 0.00 | 75 | 1005.6 |
| 20260505184540 | 58 | 167 | 2.0 | 5.0 | 0.00 | 0.00 | 0.00 | 74 | 1005.9 |
| 20260505183034 | 58 | 0 | 1.0 | 5.0 | 0.00 | 0.00 | 0.00 | 75 | 1005.9 |
| 20260505181605 | 59 | 209 | 2.0 | 6.0 | 0.00 | 0.00 | 0.00 | 73 | 1006.0 |
| 20260505180059 | 59 | 263 | 1.0 | 5.0 | 0.00 | 0.00 | 0.00 | 72 | 1005.8 |
| 20260505174538 | 60 | 209 | 1.0 | 6.0 | 0.00 | 0.00 | 0.00 | 70 | 1006.4 |
| 20260505173046 | 62 | 199 | 1.0 | 5.0 | 0.00 | 0.00 | 0.00 | 69 | 1006.4 |
| 20260505171547 | 61 | 151 | 2.0 | 9.0 | 0.00 | 0.00 | 0.00 | 69 | 1006.4 |
| 20260505170040 | 63 | 92 | 2.0 | 4.0 | 0.00 | 0.00 | 0.00 | 66 | 1007.0 |
| 20260505164540 | 63 | 169 | 2.0 | 7.0 | 0.00 | 0.00 | 0.00 | 67 | 1006.8 |
| 20260505163036 | 62 | 211 | 2.0 | 6.0 | 0.00 | 0.00 | 0.00 | 69 | 1007.3 |
| 20260505161548 | 62 | 281 | 2.0 | 5.0 | 0.00 | 0.00 | 0.00 | 69 | 1007.4 |
| 20260505153044 | 61 | 206 | 2.0 | 5.0 | 0.00 | 0.00 | 0.00 | 69 | 1008.1 |
| 20260505151535 | 60 | 201 | 1.0 | 4.0 | 0.00 | 0.00 | 0.00 | 73 | 1008.2 |
| 20260505124547 | 53 | 267 | 1.0 | 7.0 | 0.00 | 0.00 | 0.00 | 82 | 1008.3 |
| 20260505123052 | 53 | 168 | 1.0 | 4.0 | 0.00 | 0.00 | 0.00 | 82 | 1008.0 |
| 20260505121536 | 53 | 141 | 1.0 | 4.0 | 0.00 | 0.00 | 0.00 | 82 | 1008.0 |
| 20260505120104 | 52 | 170 | 1.0 | 5.0 | 0.00 | 0.00 | 0.00 | 83 | 1008.1 |
| 20260505114541 | 52 | 201 | 1.0 | 4.0 | 0.00 | 0.00 | 0.00 | 83 | 1008.3 |
| 20260505113039 | 51 | 0 | 0.0 | 3.0 | 0.00 | 0.00 | 0.00 | 85 | 1008.4 |
| 20260505111538 | 50 | 360 | 1.0 | 3.0 | 0.00 | 0.00 | 0.00 | 86 | 1008.3 |
| 20260505110106 | 50 | 182 | 0.0 | 4.0 | 0.00 | 0.00 | 0.00 | 86 | 1008.2 |
| 20260505101535 | 48 | 0 | 0.0 | 1.0 | 0.00 | 0.00 | 0.00 | 87 | 1008.3 |
| 20260505100036 | 49 | 190 | 0.0 | 3.0 | 0.00 | 0.00 | 0.00 | 86 | 1008.3 |
| 20260505094545 | 49 | 0 | 0.0 | 3.0 | 0.00 | 0.00 | 0.00 | 85 | 1008.3 |
| 20260505093043 | 49 | 0 | 0.0 | 2.0 | 0.00 | 0.00 | 0.00 | 85 | 1008.2 |
| 20260505091551 | 49 | 0 | 0.0 | 2.0 | 0.00 | 0.00 | 0.00 | 85 | 1008.3 |
| 20260505090040 | 49 | 139 | 0.0 | 2.0 | 0.00 | 0.00 | 0.00 | 85 | 1008.5 |
| 20260505084556 | 49 | 360 | 0.0 | 2.0 | 0.00 | 0.00 | 0.00 | 85 | 1008.6 |
| 20260505083044 | 49 | 0 | 0.0 | 2.0 | 0.00 | 0.00 | 0.00 | 84 | 1008.5 |
| 20260505081544 | 49 | 151 | 0.0 | 3.0 | 0.00 | 0.00 | 0.00 | 83 | 1008.7 |
| 20260505080045 | 49 | 184 | 0.0 | 5.0 | 0.00 | 0.00 | 0.00 | 84 | 1008.7 |
| 20260505074544 | 49 | 0 | 0.0 | 3.0 | 0.00 | 0.00 | 0.00 | 85 | 1008.8 |
| 20260505073046 | 48 | 0 | 0.0 | 1.0 | 0.00 | 0.00 | 0.00 | 84 | 1008.7 |
| 20260505071540 | 48 | 0 | 0.0 | 1.0 | 0.00 | 0.00 | 0.00 | 83 | 1008.6 |
| 20260505070039 | 49 | 0 | 0.0 | 1.0 | 0.00 | 0.00 | 0.00 | 81 | 1008.6 |